Stations météo

réclame
Mon MeteoGroup
Salsburgh, Grande-Bretagne (99024): Température de l'air & dewpoint: 09.07.2018 23:00:00 - 15.07.2018 23:00:00 (BST)Salsburgh, Grande-Bretagne (99024): Vitesse du vent & gusts: 09.07.2018 23:00:00 - 15.07.2018 23:00:00 (BST)Salsburgh, Grande-Bretagne (99024): Direction du vent: 09.07.2018 23:00:00 - 15.07.2018 23:00:00 (BST)Salsburgh, Grande-Bretagne (99024): Quantités de précipitations: 09.07.2018 23:00:00 - 15.07.2018 23:00:00 (BST)
Date & Time tt [°C] td [°C] ff [km/h] ff [knt] fx [km/h] fx [knt] dd rr [mm]
15.07.2018 23:00:00 15,0 14,8 18 10 - - S 0,2
15.07.2018 22:00:00 15,1 14,8 21 11 - - S 0,0
15.07.2018 21:00:00 15,2 15,0 21 11 - - S 0,2
15.07.2018 20:00:00 15,5 15,3 22 12 - - S 0,2
15.07.2018 19:00:00 15,8 15,4 22 12 - - S 0,4
15.07.2018 18:00:00 16,2 15,7 13 7 - - SW 0,2
15.07.2018 17:00:00 16,6 15,5 18 10 - - SW 0,0
15.07.2018 16:00:00 17,2 16,0 16 9 - - S 0,0
15.07.2018 15:00:00 17,3 15,4 22 12 - - S 0,0
15.07.2018 14:00:00 16,6 15,3 21 11 - - S 0,0
15.07.2018 13:00:00 17,3 15,0 22 12 - - S 0,0
15.07.2018 12:00:00 16,5 15,6 18 10 - - S 0,2
15.07.2018 11:00:00 16,5 14,7 22 12 - - S 0,0
15.07.2018 10:00:00 17,1 14,1 26 14 - - S 0,0
15.07.2018 09:00:00 17,1 14,4 24 13 - - S 0,0
15.07.2018 08:00:00 16,0 14,2 28 15 - - S 0,0
15.07.2018 07:00:00 15,4 13,8 28 15 - - S 0,0
15.07.2018 06:00:00 14,3 13,2 24 13 - - S 0,0
15.07.2018 05:00:00 14,2 12,8 22 12 - - S 0,0
15.07.2018 04:00:00 13,7 12,0 18 10 - - S 0,0
15.07.2018 03:00:00 14,6 11,6 21 11 - - S 0,0
15.07.2018 02:00:00 15,3 11,3 18 10 - - SSW 0,0
15.07.2018 01:00:00 15,0 10,6 16 9 - - SSW 0,0
15.07.2018 00:00:00 15,6 11,0 18 10 - - SSW 0,0
14.07.2018 23:00:00 16,5 10,8 24 13 - - SSW 0,0
14.07.2018 22:00:00 17,1 11,8 18 10 - - SSW 0,0
14.07.2018 21:00:00 18,3 11,7 21 11 - - SSW 0,0
14.07.2018 20:00:00 19,5 11,7 22 12 - - SSW 0,0
14.07.2018 19:00:00 20,0 11,5 24 13 - - SW 0,0
14.07.2018 18:00:00 20,2 13,4 24 13 - - SW 0,0
14.07.2018 17:00:00 21,5 13,4 24 13 - - WSW 0,0
14.07.2018 16:00:00 20,7 12,7 28 15 - - SW 0,0
14.07.2018 15:00:00 21,4 13,2 29 16 46 25 SW 0,0
14.07.2018 14:00:00 20,8 12,5 28 15 - - SW 0,0
14.07.2018 13:00:00 19,6 12,1 24 13 - - SW 0,0
14.07.2018 12:00:00 19,3 12,0 26 14 - - SW 0,0
14.07.2018 11:00:00 18,3 12,4 24 13 - - SW 0,0
14.07.2018 10:00:00 17,7 12,4 26 14 - - SSW 0,0
14.07.2018 09:00:00 16,0 13,0 21 11 - - SW 0,0
14.07.2018 08:00:00 13,9 11,9 16 9 - - SSW 0,0
14.07.2018 07:00:00 12,0 11,4 11 6 - - S 0,0
14.07.2018 06:00:00 10,9 10,6 9 5 - - S 0,0
14.07.2018 05:00:00 10,7 10,3 9 5 - - S 0,0
14.07.2018 04:00:00 10,5 10,1 11 6 - - S 0,0
14.07.2018 03:00:00 11,1 10,5 9 5 - - S 0,0
14.07.2018 02:00:00 12,0 10,9 8 4 - - WSW 0,0
14.07.2018 01:00:00 12,0 11,0 9 5 - - S 0,0
14.07.2018 00:00:00 12,5 11,4 9 5 - - SSW 0,0
13.07.2018 23:00:00 13,6 12,1 11 6 - - SSW 0,0
13.07.2018 22:00:00 14,4 12,1 13 7 - - S 0,0
13.07.2018 21:00:00 16,0 12,1 13 7 - - SSW 0,0
13.07.2018 20:00:00 16,0 13,0 15 8 - - WSW 0,0
13.07.2018 19:00:00 15,5 14,8 15 8 - - SSE 0,4
13.07.2018 18:00:00 16,2 14,4 16 9 - - S 0,0
13.07.2018 17:00:00 18,2 13,4 13 7 - - SW 0,0
13.07.2018 16:00:00 18,7 13,4 9 5 - - WSW 0,0
13.07.2018 15:00:00 18,7 13,2 4 2 - - W 0,0
13.07.2018 14:00:00 19,4 14,4 8 4 - - W 0,0
13.07.2018 13:00:00 17,3 13,4 8 4 - - WNW 0,0
13.07.2018 12:00:00 16,9 13,4 8 4 - - WSW 0,0
13.07.2018 11:00:00 16,3 12,8 5 3 - - S 0,0
13.07.2018 10:00:00 15,7 12,9 5 3 - - ESE 0,0
13.07.2018 09:00:00 14,8 12,8 8 4 - - E 0,0
13.07.2018 08:00:00 13,8 12,7 8 4 - - E 0,0
13.07.2018 07:00:00 12,8 12,0 9 5 - - E 0,0
13.07.2018 06:00:00 12,4 11,9 9 5 - - E 0,0
13.07.2018 05:00:00 12,4 12,0 9 5 - - ESE 0,0
13.07.2018 04:00:00 12,6 12,0 8 4 - - E 0,0
13.07.2018 03:00:00 12,6 12,0 13 7 - - E 0,0
13.07.2018 02:00:00 12,4 11,7 11 6 - - ENE 0,0
13.07.2018 01:00:00 12,3 11,4 18 10 - - E 0,0
13.07.2018 00:00:00 12,8 11,6 21 11 - - E 0,0
12.07.2018 23:00:00 13,7 11,7 16 9 - - E 0,0
12.07.2018 22:00:00 14,2 12,0 16 9 - - ENE 0,0
12.07.2018 21:00:00 15,7 12,3 15 8 - - E 0,0
12.07.2018 20:00:00 16,6 12,6 13 7 - - E 0,0
12.07.2018 19:00:00 17,1 12,6 13 7 - - E 0,0
12.07.2018 18:00:00 17,4 12,5 13 7 - - ENE 0,0
12.07.2018 17:00:00 17,9 13,0 15 8 - - E 0,0
12.07.2018 16:00:00 18,9 13,3 13 7 - - ENE 0,0
12.07.2018 15:00:00 17,9 12,5 9 5 - - NE 0,0
12.07.2018 14:00:00 17,8 12,2 9 5 - - E 0,0
12.07.2018 13:00:00 17,3 11,9 9 5 - - E 0,0
12.07.2018 12:00:00 17,0 12,3 9 5 - - NNE 0,0
12.07.2018 11:00:00 15,9 11,1 9 5 - - NE 0,0
12.07.2018 10:00:00 15,7 10,8 8 4 - - ENE 0,0
12.07.2018 09:00:00 14,6 11,0 8 4 - - ESE 0,0
12.07.2018 08:00:00 13,4 10,3 8 4 - - E 0,0
12.07.2018 07:00:00 12,4 10,1 5 3 - - ENE 0,0
12.07.2018 06:00:00 11,8 10,0 4 2 - - E 0,0
12.07.2018 05:00:00 12,2 10,1 16 9 - - E 0,0
12.07.2018 04:00:00 12,1 10,3 16 9 - - E 0,0
12.07.2018 03:00:00 11,9 10,2 18 10 - - E 0,0
12.07.2018 02:00:00 12,6 10,7 16 9 - - E 0,0
12.07.2018 01:00:00 13,1 10,8 16 9 - - E 0,0
12.07.2018 00:00:00 13,4 11,1 16 9 - - ENE 0,0
11.07.2018 23:00:00 13,3 11,1 13 7 - - ENE 0,0
11.07.2018 22:00:00 14,6 11,4 16 9 - - ENE 0,0
11.07.2018 21:00:00 16,1 11,5 15 8 - - E 0,0
11.07.2018 20:00:00 17,4 11,9 15 8 - - E 0,0
11.07.2018 19:00:00 17,1 11,8 16 9 - - E 0,0
11.07.2018 18:00:00 17,6 11,9 16 9 - - E 0,0
11.07.2018 17:00:00 19,3 11,9 18 10 - - ENE 0,0
11.07.2018 16:00:00 19,8 11,3 11 6 - - ENE 0,0
11.07.2018 15:00:00 20,4 12,0 11 6 - - ENE 0,0
11.07.2018 14:00:00 18,8 12,1 11 6 - - NNE 0,0
11.07.2018 13:00:00 18,1 11,9 5 3 - - ENE 0,0
11.07.2018 12:00:00 17,7 11,7 13 7 - - NNE 0,0
11.07.2018 11:00:00 17,6 11,6 8 4 - - NE 0,0
11.07.2018 10:00:00 16,1 11,9 5 3 - - ESE 0,0
11.07.2018 09:00:00 14,5 11,3 11 6 - - E 0,0
11.07.2018 08:00:00 13,7 10,4 13 7 - - E 0,0
11.07.2018 07:00:00 13,4 10,4 13 7 - - E 0,0
11.07.2018 06:00:00 12,9 10,7 11 6 - - ENE 0,0
11.07.2018 05:00:00 13,0 11,4 13 7 - - ENE 0,0
11.07.2018 04:00:00 12,9 11,3 13 7 - - ENE 0,0
11.07.2018 03:00:00 13,3 11,4 11 6 - - ENE 0,0
11.07.2018 02:00:00 13,2 11,2 11 6 - - NE 0,0
11.07.2018 01:00:00 14,2 11,6 8 4 - - E 0,0
11.07.2018 00:00:00 14,8 11,4 9 5 - - ENE 0,0
10.07.2018 23:00:00 15,4 11,2 8 4 - - ENE 0,0
10.07.2018 22:00:00 15,9 11,4 9 5 - - NE 0,0
10.07.2018 21:00:00 16,5 11,6 8 4 - - NE 0,0
10.07.2018 20:00:00 17,5 11,6 5 3 - - N 0,0
10.07.2018 19:00:00 17,9 10,9 4 2 - - NNE 0,0
10.07.2018 18:00:00 17,9 11,0 4 2 - - NE 0,0
10.07.2018 17:00:00 17,7 10,4 4 2 - - NE 0,0
10.07.2018 16:00:00 18,5 10,8 5 3 - - N 0,0
10.07.2018 15:00:00 17,5 10,9 4 2 - - E 0,0
10.07.2018 14:00:00 17,3 11,1 8 4 - - ENE 0,0
10.07.2018 13:00:00 16,7 10,6 8 4 - - NE 0,0
10.07.2018 12:00:00 16,3 10,3 4 2 - - NNE 0,0
10.07.2018 11:00:00 15,3 10,2 5 3 - - E 0,0
10.07.2018 10:00:00 14,0 9,6 8 4 - - E 0,0
10.07.2018 09:00:00 13,5 9,5 8 4 - - E 0,0
10.07.2018 08:00:00 13,1 9,5 9 5 - - E 0,0
10.07.2018 07:00:00 12,6 9,6 8 4 - - E 0,0
10.07.2018 06:00:00 12,0 9,0 5 3 - - E 0,0
10.07.2018 05:00:00 11,8 9,0 8 4 - - E 0,0
10.07.2018 04:00:00 11,8 9,0 16 9 - - E 0,0
10.07.2018 03:00:00 12,1 9,0 21 11 - - ENE 0,0
10.07.2018 02:00:00 12,4 9,8 18 10 - - ENE 0,0
10.07.2018 01:00:00 12,6 10,0 16 9 - - ENE 0,0
10.07.2018 00:00:00 12,7 10,5 16 9 - - ENE 0,0
09.07.2018 23:00:00 12,6 10,4 16 9 - - ENE 0,0

tt = Température de l'air
td = dewpoint
ff = Vitesse du vent
fx = gusts
dd = Direction du vent
rr = Quantités de précipitations

stations d'obs. à proximité